Lawton, OK

6:18 PM CST on December 08, 2019 (GMT -0600)
Lawton-Fort Sill Regional

Weather History for KLAW - September, 2019

Change the Weather History Date:

Sunday, September 1, 2019

  Actual Average Record
Temperature  
Mean Temperature 82 °F 80 °F  
Max Temperature 92 °F 93 °F 110 °F (1939)
Min Temperature 72 °F 68 °F 49 °F (1915)
Degree Days  
Heating Degree Days 0 0  
Month to date heating degree days 0 0  
Since 1 July heating degree days 0 0  
Cooling Degree Days 17 15  
Month to date cooling degree days 17 15  
Year to date cooling degree days 1992 1931  
Growing Degree Days 32 (Base 50)    
Moisture  
Dew Point 72 °F    
Average Humidity 75    
Maximum Humidity 100    
Minimum Humidity 49    
Precipitation  
Precipitation 0.00 in 0.18 in 1.03 in (1981)
Month to date precipitation 0.00 0.18  
Year to date precipitation 22.91 20.86  
Sea Level Pressure  
Sea Level Pressure 30.04 in    
Wind  
Wind Speed 5 mph (ESE)    
Max Wind Speed 13 mph    
Max Gust Speed 20 mph    
Visibility 9 miles    
Events      
T = Trace of Precipitation, MM = Missing Value Source: NWS Daily Summary

Daily Weather History Graph

Daily Weather History Graph

Search for Another Location

Airport or City:

Astronomy

Sep. 01, 2019 Rise Set
Actual Time 7:06 AM CDT 8:00 PM CDT
Civil Twilight 6:40 AM CDT 8:25 PM CDT
Nautical Twilight 6:10 AM CDT 8:56 PM CDT
Astronomical Twilight 5:39 AM CDT 9:27 PM CDT
Moon 9:33 AM CDT (9/1) 9:55 PM CDT (9/1)
Length of Visible Light 13h 44m
Length of Day
12h 53m
Waxing Crescent, 8% of the Moon is Illuminated
Sep 1
Waxing Crescent
Sep 5
First Quarter
Sep 13
Full
Sep 21
Last Quarter
Sep 28
New

Hourly Weather History & Observations

Time (CDT) Temp. Heat Index Dew Point Humidity Pressure Visibility Wind Dir Wind Speed Gust Speed Precip Events Conditions
12:53 AM 75.0 °F - 73.0 °F 94% 30.04 in 10.0 mi ENE 10.4 mph - N/A   Clear
1:53 AM 73.9 °F - 73.0 °F 97% 30.04 in 10.0 mi East 8.1 mph - N/A   Clear
2:53 AM 73.9 °F - 72.0 °F 93% 30.05 in 10.0 mi East 5.8 mph - N/A   Clear
3:53 AM 73.0 °F - 72.0 °F 96% 30.06 in 10.0 mi NE 3.5 mph - N/A   Partly Cloudy
4:53 AM 72.0 °F - 71.1 °F 97% 30.05 in 8.0 mi Calm Calm - N/A   Partly Cloudy
5:44 AM 72.0 °F - 71.1 °F 97% 30.07 in 7.0 mi ESE 4.6 mph - N/A   Partly Cloudy
5:53 AM 72.0 °F - 71.1 °F 97% 30.04 in 7.0 mi ENE 3.5 mph - N/A   Scattered Clouds
6:00 AM 72.0 °F - 71.1 °F 97% 30.09 in 7.0 mi Calm Calm - N/A   Mostly Cloudy
6:53 AM 72.0 °F - 71.1 °F 97% 30.07 in 7.0 mi Calm Calm - N/A   Mostly Cloudy
6:57 AM 72.0 °F - 72.0 °F 100% 30.10 in 7.0 mi Calm Calm - N/A   Mostly Cloudy
7:53 AM 73.0 °F - 72.0 °F 96% 30.08 in 6.0 mi East 5.8 mph - N/A   Partly Cloudy
8:53 AM 73.9 °F - 73.0 °F 97% 30.08 in 9.0 mi ESE 5.8 mph - N/A   Mostly Cloudy
9:53 AM 78.1 °F - 72.0 °F 81% 30.08 in 10.0 mi ENE 4.6 mph - N/A   Clear
10:53 AM 82.9 °F 88.0 °F 72.0 °F 69% 30.09 in 10.0 mi Calm Calm - N/A   Clear
11:53 AM 84.9 °F 90.7 °F 72.0 °F 65% 30.07 in 10.0 mi ESE 4.6 mph - N/A   Clear
12:53 PM 88.0 °F 95.6 °F 73.0 °F 61% 30.05 in 10.0 mi ESE 8.1 mph - N/A   Clear
1:53 PM 88.0 °F 94.7 °F 72.0 °F 59% 30.05 in 10.0 mi SSE 6.9 mph - N/A   Clear
2:53 PM 90.0 °F 96.4 °F 71.1 °F 54% 30.02 in 10.0 mi ESE 8.1 mph - N/A   Clear
3:53 PM 91.0 °F 96.6 °F 70.0 °F 50% 29.99 in 10.0 mi SE 10.4 mph - N/A   Clear
4:53 PM 91.0 °F 96.6 °F 70.0 °F 50% 29.98 in 10.0 mi SE 11.5 mph - N/A   Clear
5:53 PM 91.0 °F 97.6 °F 71.1 °F 52% 29.97 in 10.0 mi ESE 9.2 mph - N/A   Clear
6:53 PM 90.0 °F 96.4 °F 71.1 °F 54% 29.97 in 10.0 mi ESE 6.9 mph - N/A   Clear
7:53 PM 84.9 °F 90.7 °F 72.0 °F 65% 29.99 in 10.0 mi ESE 6.9 mph - N/A   Clear
8:53 PM 82.9 °F 88.0 °F 72.0 °F 69% 30.00 in 10.0 mi ESE 6.9 mph - N/A   Clear
9:53 PM 80.1 °F 83.8 °F 72.0 °F 76% 30.01 in 10.0 mi SE 5.8 mph - N/A   Clear
10:53 PM 78.1 °F - 72.0 °F 81% 30.03 in 10.0 mi ESE 4.6 mph - N/A   Clear
11:53 PM 77.0 °F - 71.1 °F 82% 30.04 in 10.0 mi ESE 3.5 mph - N/A   Clear